Skip Page Navigation
NASA JPL Caltech
NASA Logo - Jet Propulsion Laboratory + View the NASA Portal
+ Center for Near-Earth Object Studies
JPL Home Earth Solar System Stars & Galaxies Technology
JPL Solar System Dynamics
BODIES ORBITS EPHEMERIDES TOOLS PHYSICAL DATA DISCOVERY FAQ SITE MAP
JPL Small-Body Database Browser
Search: [ help ]  
1068 Nofretete (1926 RK)
Classification: Main-belt Asteroid          SPK-ID: 2001068
Ephemeris | Orbit Diagram | Orbital Elements | Mission Design | Physical Parameters | Discovery Circumstances | Close-Approach Data ]

[ show orbit diagram ]
Orbital Elements at Epoch 2459200.5 (2020-Dec-17.0) TDB
Reference: JPL 41 (heliocentric ecliptic J2000)
 Element Value Uncertainty (1-sigma)   Units 
e .09759098563222392 3.097e-08  
a 2.905827883399265 1.0344e-08 au
q 2.622245276180732 8.8331e-08 au
i 5.490576837848374 3.8449e-06 deg
node 318.6015556385753 3.4334e-05 deg
peri 266.5059448435429 3.9984e-05 deg
M 129.795395402545 2.1833e-05 deg
tp 2458548.180979341772
(2019-Mar-05.68097934)
0.00010924 TDB
period 1809.269479157173
4.95
9.6606e-06
2.645e-08
d
yr
n .1989753346017321 1.0624e-09 deg/d
Q 3.189410490617798 1.1353e-08 au
  Orbit Determination Parameters
   # obs. used (total)      4252  
   data-arc span      33610 days (92.02 yr)  
   first obs. used      1929-02-05  
   last obs. used      2021-02-12  
   planetary ephem.      DE441  
   SB-pert. ephem.      SB441-N16  
   condition code      0  
   norm. resid. RMS      .35094  
   source      ORB  
   producer      Otto Matic  
   solution date      2021-Apr-12 11:55:46  

Additional Information
 Earth MOID = 1.61927 au 
 Jupiter MOID = 1.84081 au 
 T_jup = 3.271 
[ show covariance matrix ]

Ephemeris | Orbit Diagram | Orbital Elements | Mission Design | Physical Parameters | Discovery Circumstances | Close-Approach Data ]

Physical Parameter Table
Parameter Symbol Value Units Sigma Reference Notes
absolute magnitude H 10.75   n/a E2021B10  
diameter diameter 21.346 km 0.106 urn:nasa:pds:neowise_diameters_albedos::2.0[mainbelt] (http://adsabs.harvard.edu/abs/2014ApJ...791..121M)  
rotation period rot_per 6.15 h n/a LCDB (Rev. 2020-October); Warner et al., 2009 Result based on less than full coverage, so that the period may be wrong by 30 percent or so.
Published Reference List:
[Binzel, R.P. (1987) Icarus 72, 135-208.]
geometric albedo albedo 0.142   0.025 urn:nasa:pds:neowise_diameters_albedos::2.0[mainbelt] (http://adsabs.harvard.edu/abs/2012ApJ...759L...8M)  
B-V BV 0.850   0.020 EAR-A-5-DDR-UBV-MEAN-VALUES-V1.2 #obs=1; phase=14.87 deg.
U-B UB 0.420   0.030 EAR-A-5-DDR-UBV-MEAN-VALUES-V1.2 #obs=1; phase=14.87 deg.

1068 Nofretete (1926 RK)          Discovered 1926-Sep-13 by Delporte, E. at Uccle
Reference: DISCOVERY.DBLast Updated: 2003-08-29

[ show close-approach data ]
Alternate Designations
 1926 RK = 1929 CV 
Ephemeris | Orbit Diagram | Orbital Elements | Mission Design | Physical Parameters | Discovery Circumstances | Close-Approach Data ]
ABOUT SSD CREDITS/AWARDS PRIVACY/COPYRIGHT GLOSSARY LINKS
FirstGov 2021-Jun-17 03:47 UT
(server date/time)  
NASA Home Page
Site Manager:   Ryan S. Park
Webmaster  Alan B. Chamberlin